Middletown, OH

2:53 AM EST on February 23, 2017 (GMT -0500)
Hook Field Municipal

Weather History for KMWO - May, 2013

Change the Weather History Date:

Saturday, May 4, 2013

  Actual Average (KFFO) Record (KFFO)
Temperature  
Mean Temperature 62 °F -  
Max Temperature 70 °F 69 °F 86 °F (2001)
Min Temperature 55 °F 48 °F 30 °F (2005)
Degree Days  
Heating Degree Days 2    
Growing Degree Days 12 (Base 50)    
Moisture  
Dew Point 48 °F    
Average Humidity 56    
Maximum Humidity 77    
Minimum Humidity 41    
Precipitation  
Precipitation 0.00 in - - ()
Sea Level Pressure  
Sea Level Pressure 30.01 in    
Wind  
Wind Speed 9 mph (ESE)    
Max Wind Speed 14 mph    
Max Gust Speed 18 mph    
Visibility 10 miles    
Events      
Averages and records for this station are not official NWS values.
T = Trace of Precipitation, MM = Missing Value Source: NWS Daily Summary

Daily Weather History Graph

Daily Weather History Graph

Search for Another Location

Airport or City:

Trip Planner

Search our weather history database for the weather conditions in past years. The results will help you decide how hot, cold, wet, or windy it might be!

Date:

Astronomy

May. 04, 2013 Rise Set
Actual Time 6:34 AM EDT 8:34 PM EDT
Civil Twilight 6:05 AM EDT 9:04 PM EDT
Nautical Twilight 5:29 AM EDT 9:40 PM EDT
Astronomical Twilight 4:50 AM EDT 10:18 PM EDT
Moon 3:31 AM EDT (5/4) 3:32 PM EDT (5/4)
Length of Visible Light 14h 58m
Length of Day
13h 59m
Waning Crescent, 27% of the Moon is Illuminated
May 4
Waning Crescent
May 9
New
May 18
First Quarter
May 25
Full
May 31
Last Quarter

Hourly Weather History & Observations

Time (EDT) Temp. Dew Point Humidity Pressure Visibility Wind Dir Wind Speed Gust Speed Precip Events Conditions
12:15 AM 65.7 °F 41.4 °F 41% 30.02 in 10.0 mi SE 9.2 mph 17.3 mph N/A   Clear
12:35 AM 65.1 °F 41.5 °F 42% 30.02 in 10.0 mi SE 9.2 mph - N/A   Clear
12:55 AM 65.3 °F 41.9 °F 42% 30.03 in 10.0 mi SE 8.1 mph 17.3 mph N/A   Clear
1:15 AM 64.2 °F 41.9 °F 44% 30.03 in 10.0 mi SE 12.7 mph 18.4 mph N/A   Clear
1:35 AM 62.6 °F 41.7 °F 46% 30.03 in 10.0 mi SE 8.1 mph - N/A   Clear
1:55 AM 62.6 °F 42.8 °F 48% 30.03 in 10.0 mi SE 9.2 mph - N/A   Clear
2:15 AM 62.1 °F 43.5 °F 51% 30.03 in 10.0 mi SE 9.2 mph - N/A   Clear
2:35 AM 61.0 °F 43.7 °F 53% 30.03 in 10.0 mi ESE 11.5 mph 16.1 mph N/A   Clear
2:55 AM 60.8 °F 43.9 °F 54% 30.03 in 10.0 mi SE 6.9 mph - N/A   Clear
3:15 AM 60.8 °F 44.8 °F 56% 30.03 in 10.0 mi SE 8.1 mph - N/A   Clear
3:35 AM 60.1 °F 45.3 °F 58% 30.03 in 10.0 mi SE 4.6 mph - N/A   Clear
3:55 AM 60.1 °F 46.2 °F 60% 30.03 in 10.0 mi SE 6.9 mph - N/A   Clear
4:15 AM 60.1 °F 46.6 °F 61% 30.03 in - ESE 8.1 mph - N/A   Clear
4:35 AM 60.1 °F 47.1 °F 62% 30.03 in 10.0 mi ESE 5.8 mph - N/A   Clear
4:55 AM 59.5 °F 47.1 °F 63% 30.03 in - ESE 6.9 mph - N/A   Clear
5:15 AM 59.0 °F 47.3 °F 65% 30.03 in 10.0 mi ESE 5.8 mph - N/A   Clear
5:35 AM 59.0 °F 47.1 °F 65% 30.03 in 10.0 mi ESE 5.8 mph - N/A   Clear
5:55 AM 59.0 °F 47.3 °F 65% 30.02 in 10.0 mi East 8.1 mph - N/A   Clear
6:15 AM 58.1 °F 47.3 °F 67% 30.02 in 10.0 mi East 5.8 mph - N/A   Clear
6:35 AM 55.4 °F 48.2 °F 77% 30.03 in 10.0 mi ENE 5.8 mph - N/A   Clear
6:55 AM 55.4 °F 48.4 °F 77% 30.03 in 10.0 mi ENE 4.6 mph - N/A   Clear
7:15 AM 55.4 °F 48.4 °F 77% 30.03 in 10.0 mi East 4.6 mph - N/A   Clear
7:35 AM 57.7 °F 49.1 °F 73% 30.03 in 10.0 mi East 6.9 mph - N/A   Clear
7:55 AM 57.7 °F 48.6 °F 71% 30.03 in 10.0 mi East 6.9 mph - N/A   Scattered Clouds
8:15 AM 58.3 °F 48.6 °F 70% 30.03 in 10.0 mi East 8.1 mph - N/A   Overcast
8:35 AM 59.0 °F 48.6 °F 68% 30.03 in 10.0 mi East 10.4 mph - N/A   Overcast
8:55 AM 59.0 °F 48.0 °F 67% 30.03 in 10.0 mi East 6.9 mph 16.1 mph N/A   Overcast
9:15 AM 59.0 °F 47.1 °F 65% 30.04 in 10.0 mi ESE 9.2 mph 16.1 mph N/A   Mostly Cloudy
9:35 AM 60.1 °F 47.8 °F 64% 30.04 in 10.0 mi ESE 6.9 mph - N/A   Scattered Clouds
9:55 AM 60.1 °F 46.6 °F 61% 30.03 in 10.0 mi East 12.7 mph - N/A   Scattered Clouds
10:15 AM 60.4 °F 45.9 °F 59% 30.04 in 10.0 mi ESE 12.7 mph 17.3 mph N/A   Scattered Clouds
10:35 AM 60.8 °F 44.6 °F 55% 30.03 in 10.0 mi East 9.2 mph - N/A   Scattered Clouds
10:55 AM 60.8 °F 43.9 °F 54% 30.03 in 10.0 mi ESE 12.7 mph - N/A   Mostly Cloudy
11:15 AM 62.6 °F 44.4 °F 51% 30.03 in 10.0 mi SE 10.4 mph 16.1 mph N/A   Mostly Cloudy
11:35 AM 62.6 °F 43.7 °F 50% 30.03 in 10.0 mi ESE 8.1 mph - N/A   Mostly Cloudy
11:55 AM 66.0 °F 45.9 °F 48% 30.03 in 10.0 mi East 9.2 mph - N/A   Scattered Clouds
12:15 PM 67.6 °F 47.1 °F 48% 30.02 in 10.0 mi East 11.5 mph - N/A   Scattered Clouds
12:35 PM 67.6 °F 46.2 °F 46% 30.01 in 10.0 mi SSE 9.2 mph - N/A   Clear
12:55 PM 67.6 °F 45.5 °F 45% 30.01 in 10.0 mi ESE 9.2 mph - N/A   Clear
1:15 PM 67.6 °F 45.0 °F 44% 30.01 in 10.0 mi SSE 6.9 mph 16.1 mph N/A   Clear
1:35 PM 67.6 °F 45.5 °F 45% 30.00 in 10.0 mi SE 10.4 mph - N/A   Clear
1:55 PM 67.6 °F 45.7 °F 45% 30.00 in 10.0 mi SE 9.2 mph - N/A   Clear
2:15 PM 67.6 °F 46.4 °F 46% 30.00 in 10.0 mi ESE 8.1 mph - N/A   Clear
2:35 PM 67.6 °F 47.5 °F 48% 29.99 in 10.0 mi SE 8.1 mph - N/A   Clear
2:55 PM 67.8 °F 47.5 °F 48% 29.99 in 10.0 mi East 13.8 mph 18.4 mph N/A   Clear
3:15 PM 70.2 °F 50.2 °F 49% 29.98 in 10.0 mi SE 9.2 mph - N/A   Clear
3:35 PM 70.2 °F 49.8 °F 48% 29.98 in 10.0 mi SE 11.5 mph 16.1 mph N/A   Clear
3:55 PM 70.2 °F 48.7 °F 46% 29.97 in 10.0 mi ESE 10.4 mph - N/A   Clear
4:15 PM 69.4 °F 48.0 °F 46% 29.97 in 10.0 mi ESE 10.4 mph - N/A   Clear
4:35 PM 68.2 °F 47.1 °F 47% 29.97 in 10.0 mi SE 9.2 mph 16.1 mph N/A   Clear
4:55 PM 69.3 °F 49.1 °F 49% 29.97 in 10.0 mi SE 13.8 mph - N/A   Clear
5:15 PM 68.9 °F 49.5 °F 50% 29.97 in 10.0 mi East 10.4 mph - N/A   Clear
5:35 PM 68.9 °F 50.0 °F 51% 29.97 in 10.0 mi ESE 9.2 mph 16.1 mph N/A   Scattered Clouds
5:55 PM 68.9 °F 49.6 °F 50% 29.97 in 10.0 mi East 11.5 mph 17.3 mph N/A   Clear
6:15 PM 70.2 °F 50.7 °F 50% 29.96 in 10.0 mi ESE 12.7 mph 17.3 mph N/A   Clear
6:35 PM 67.8 °F 49.6 °F 52% 29.97 in 10.0 mi ESE 9.2 mph - N/A   Scattered Clouds
6:55 PM 67.8 °F 50.0 °F 53% 29.97 in 10.0 mi ESE 5.8 mph - N/A   Scattered Clouds
7:15 PM 68.2 °F 50.4 °F 53% 29.97 in 10.0 mi East 9.2 mph - N/A   Scattered Clouds
7:35 PM 67.6 °F 50.5 °F 54% 29.97 in 10.0 mi East 5.8 mph - N/A   Scattered Clouds
7:55 PM 67.6 °F 52.2 °F 58% 29.97 in 10.0 mi East 6.9 mph - N/A   Scattered Clouds
8:15 PM 67.6 °F 52.0 °F 57% 29.97 in 10.0 mi East 11.5 mph - N/A   Scattered Clouds
8:35 PM 67.6 °F 52.3 °F 58% 29.98 in 10.0 mi East 9.2 mph - N/A   Clear
8:55 PM 67.6 °F 53.2 °F 60% 29.98 in 10.0 mi East 9.2 mph - N/A   Clear
9:15 PM 67.5 °F 53.6 °F 61% 29.98 in 10.0 mi East 9.2 mph 16.1 mph N/A   Clear
9:35 PM 65.3 °F 51.4 °F 61% 29.99 in 10.0 mi East 10.4 mph - N/A   Clear
9:55 PM 65.3 °F 51.3 °F 60% 29.99 in 10.0 mi East 10.4 mph - N/A   Clear
10:15 PM 66.6 °F 52.7 °F 61% 30.00 in 10.0 mi East 10.4 mph - N/A   Mostly Cloudy
10:35 PM 65.3 °F 52.0 °F 62% 30.00 in 10.0 mi East 8.1 mph - N/A   Scattered Clouds
10:55 PM 65.3 °F 52.2 °F 62% 30.00 in 10.0 mi East 8.1 mph - N/A   Mostly Cloudy
11:15 PM 64.4 °F 51.4 °F 63% 30.00 in 10.0 mi SE 5.8 mph - N/A   Overcast
11:35 PM 63.7 °F 51.3 °F 64% 30.00 in 10.0 mi South 5.8 mph - N/A   Overcast
11:55 PM 62.6 °F 50.9 °F 66% 30.01 in 10.0 mi SSW 10.4 mph - N/A   Mostly Cloudy